TimeCDT,TemperatureF,Dew PointF,Humidity,Sea Level PressureIn,VisibilityMPH,Wind Direction,Wind SpeedMPH,Gust SpeedMPH,PrecipitationIn,Events,Conditions,WindDirDegrees,DateUTC
12:53 AM,30.9,17.1,57,30.23,10.0,South,4.6,-,N/A,,Clear,180,2011-11-04 05:53:00
1:53 AM,32.0,17.1,54,30.22,10.0,South,5.8,-,N/A,,Clear,170,2011-11-04 06:53:00
2:53 AM,30.0,17.1,59,30.22,10.0,South,6.9,-,N/A,,Clear,180,2011-11-04 07:53:00
3:53 AM,30.9,18.0,59,30.22,10.0,South,8.1,-,N/A,,Clear,180,2011-11-04 08:53:00
4:53 AM,30.9,18.0,59,30.22,10.0,South,6.9,-,N/A,,Clear,170,2011-11-04 09:53:00
5:53 AM,32.0,18.0,56,30.22,10.0,South,8.1,-,N/A,,Clear,180,2011-11-04 10:53:00
6:53 AM,32.0,18.0,56,30.22,10.0,South,8.1,-,N/A,,Clear,190,2011-11-04 11:53:00
7:53 AM,32.0,18.0,56,30.21,10.0,SSE,5.8,-,N/A,,Clear,160,2011-11-04 12:53:00
8:53 AM,35.1,19.9,54,30.21,10.0,South,10.4,-,N/A,,Clear,170,2011-11-04 13:53:00
9:53 AM,42.1,21.0,43,30.19,10.0,South,12.7,20.7,N/A,,Clear,190,2011-11-04 14:53:00
10:53 AM,45.0,19.9,37,30.20,10.0,South,15.0,25.3,N/A,,Clear,180,2011-11-04 15:53:00
11:53 AM,48.0,19.9,33,30.18,10.0,South,16.1,23.0,N/A,,Clear,170,2011-11-04 16:53:00
12:53 PM,48.9,19.9,32,30.16,10.0,South,15.0,26.5,N/A,,Clear,180,2011-11-04 17:53:00
2:53 PM,53.1,16.0,23,30.10,10.0,South,19.6,29.9,N/A,,Clear,170,2011-11-04 19:53:00
4:53 PM,51.1,15.1,24,30.05,10.0,South,15.0,25.3,N/A,,Clear,170,2011-11-04 21:53:00
5:53 PM,48.9,17.1,28,30.04,10.0,SSE,10.4,-,N/A,,Clear,160,2011-11-04 22:53:00
6:53 PM,46.9,17.1,30,30.04,10.0,SSE,10.4,-,N/A,,Clear,160,2011-11-04 23:53:00
7:53 PM,46.9,17.1,30,30.03,10.0,SSE,11.5,19.6,N/A,,Clear,160,2011-11-05 00:53:00
8:53 PM,46.0,17.1,31,30.02,10.0,SSE,15.0,21.9,N/A,,Clear,160,2011-11-05 01:53:00
9:53 PM,45.0,19.0,36,30.01,10.0,South,15.0,27.6,N/A,,Clear,170,2011-11-05 02:53:00
10:53 PM,43.0,21.9,43,30.01,10.0,South,16.1,23.0,N/A,,Clear,170,2011-11-05 03:53:00
11:53 PM,42.1,26.1,53,30.01,10.0,South,16.1,-,N/A,,Clear,170,2011-11-05 04:53:00